Location: Caltech
(34.1382°N, 118.1253°W)
Time: 21:37:38
(UTC-07:00)

AO-Echo - Visible Passes

Search period start: 28 July 2014 00:00
Search period end: 07 August 2014 00:00
Orbit: 695 x 812 km, 98.3° (Epoch: 27 July)

Date Brightness Start Highest point End Pass type
(mag) Time Alt. Az. Time Alt. Az. Time Alt. Az.
28 Jul ? 02:30:20 10° NNE 02:34:01 34° ENE 02:34:01 34° ENE visible
28 Jul ? 04:09:48 10° NNW 04:13:27 21° WNW 04:13:58 20° WNW visible
29 Jul ? 01:52:04 10° ENE 01:53:23 13° ENE 01:53:23 13° ENE visible
29 Jul ? 03:28:49 10° N 03:33:20 50° WNW 03:33:20 50° WNW visible
30 Jul ? 02:48:44 10° NNE 02:52:42 49° NE 02:52:42 49° NE visible
30 Jul ? 04:29:34 10° NW 04:31:51 13° WNW 04:32:40 13° WNW visible
31 Jul ? 02:09:35 10° NE 02:12:05 20° ENE 02:12:05 20° ENE visible
31 Jul ? 03:47:47 10° N 03:52:02 32° WNW 03:52:02 32° WNW visible
01 Aug ? 03:07:19 10° NNE 03:11:24 60° N 03:11:24 60° N visible
02 Aug ? 02:27:39 10° NNE 02:30:46 29° ENE 02:30:46 29° ENE visible
02 Aug ? 04:06:59 10° NNW 04:10:40 21° WNW 04:10:43 21° WNW visible
03 Aug ? 01:49:38 10° ENE 01:50:08 11° ENE 01:50:08 11° ENE visible
03 Aug ? 03:26:04 10° N 03:30:05 48° NW 03:30:05 48° NW visible
04 Aug ? 02:46:00 10° NNE 02:49:27 40° NE 02:49:27 40° NE visible
04 Aug ? 04:26:41 10° NW 04:29:04 14° WNW 04:29:24 14° WNW visible
05 Aug ? 02:06:58 10° NE 02:08:48 17° ENE 02:08:48 17° ENE visible
05 Aug ? 03:44:59 10° N 03:48:46 33° NW 03:48:46 33° NW visible
06 Aug ? 03:04:33 10° NNE 03:08:07 48° NNE 03:08:07 48° NNE visible
